Weather History for New York, NY

Change the Weather History Date:

Friday, February 15, 2013

  Actual Average Record
Temperature  
Mean Temperature 45 °F 35 °F  
Max Temperature 53 °F 42 °F 74 °F (1949)
Min Temperature 37 °F 29 °F -7 °F (1943)
Degree Days  
Heating Degree Days 20 30  
Month to date heating degree days 475 461  
Since 1 July heating degree days 2824 3060  
Cooling Degree Days 0 0  
Month to date cooling degree days 0 0  
Year to date cooling degree days 0 0  
Moisture  
Dew Point 32 °F    
Average Humidity 60    
Maximum Humidity 76    
Minimum Humidity 44    
Precipitation  
Precipitation 0.00 in 0.10 in 1.57 in (1984)
Month to date precipitation 1.49 1.42  
Year to date precipitation 4.13 4.59  
Snow  
Snow 0.00 in 0.30 in 3.40 in (1958)
Month to date snowfall 13.1 4.9  
Since 1 July snowfall 16.1 17.8  
Snow Depth 0.00 in    
Sea Level Pressure  
Sea Level Pressure 29.97 in    
Wind  
Wind Speed 8 mph (SSW)    
Max Wind Speed 23 mph    
Max Gust Speed 26 mph    
Visibility 9 miles    
Events      
T = Trace of Precipitation, MM = Missing Value Source: NWS Daily Summary

Daily Weather History Graph

Daily Weather History Graph

Search for Another Location

Airport:

Trip Planner

Search our weather history database for the weather conditions in past years. The results will help you decide how hot, cold, wet, or windy it might be!

Date:

Astronomy

Feb. 15, 2013 Rise Set
Actual Time 6:49 AM EST 5:30 PM EST
Civil Twilight 6:21 AM EST 5:58 PM EST
Nautical Twilight 5:49 AM EST 6:30 PM EST
Astronomical Twilight 5:17 AM EST 7:02 PM EST
Moon 9:21 AM EST (2/15) 11:31 PM EST (2/15)
Length of Visible Light 11h 37m
Length of Day
10h 41m
Waxing Crescent, 30% of the Moon is Illuminated
Feb 15
Waxing Crescent
Feb 17
First Quarter
Feb 25
Full
Mar 4
Last Quarter
Mar 11
New

Hourly Weather History & Observations

Time (EST) Temp. Windchill Dew Point Humidity Pressure Visibility Wind Dir Wind Speed Gust Speed Precip Events Conditions
12:51 AM 39.0 °F 33.4 °F 28.9 °F 67% 30.01 in 10.0 mi SW 8.1 mph - N/A   Scattered Clouds
1:51 AM 39.0 °F 32.8 °F 28.9 °F 67% 30.00 in 9.0 mi SSW 9.2 mph - N/A   Mostly Cloudy
2:51 AM 39.0 °F 33.4 °F 28.9 °F 67% 29.99 in 9.0 mi SW 8.1 mph - N/A   Mostly Cloudy
3:51 AM 39.0 °F 33.4 °F 28.9 °F 67% 29.99 in 9.0 mi SW 8.1 mph - N/A   Overcast
4:51 AM 37.9 °F 32.1 °F 28.9 °F 70% 30.00 in 9.0 mi SSW 8.1 mph - N/A   Mostly Cloudy
5:51 AM 37.9 °F 33.5 °F 28.9 °F 70% 29.99 in 9.0 mi SSW 5.8 mph - N/A   Scattered Clouds
6:51 AM 37.9 °F 33.5 °F 30.0 °F 73% 29.99 in 8.0 mi SW 5.8 mph - N/A   Partly Cloudy
7:51 AM 39.0 °F 32.8 °F 30.0 °F 70% 30.01 in 8.0 mi SW 9.2 mph - N/A   Partly Cloudy
8:51 AM 39.9 °F 33.9 °F 30.9 °F 70% 30.01 in 7.0 mi SW 9.2 mph - N/A   Scattered Clouds
9:51 AM 43.0 °F 38.2 °F 30.9 °F 62% 30.01 in 8.0 mi SSW 8.1 mph - N/A   Partly Cloudy
10:51 AM 45.0 °F 40.1 °F 30.0 °F 56% 30.01 in 10.0 mi SSW 9.2 mph - N/A   Clear
11:51 AM 48.0 °F - 30.9 °F 52% 29.99 in 10.0 mi SSW 8.1 mph - N/A   Clear
12:51 PM 51.1 °F - 30.0 °F 44% 29.96 in 10.0 mi SW 10.4 mph - N/A   Clear
1:51 PM 52.0 °F - 30.0 °F 43% 29.94 in 10.0 mi SW 8.1 mph - N/A   Partly Cloudy
2:51 PM 51.1 °F - 33.1 °F 50% 29.93 in 10.0 mi SSE 13.8 mph - N/A   Partly Cloudy
3:51 PM 50.0 °F - 35.1 °F 57% 29.93 in 10.0 mi South 11.5 mph - N/A   Partly Cloudy
4:51 PM 46.9 °F - 35.1 °F 63% 29.93 in 10.0 mi South 11.5 mph - N/A   Scattered Clouds
5:51 PM 46.0 °F 41.4 °F 36.0 °F 68% 29.93 in 10.0 mi South 9.2 mph - N/A   Scattered Clouds
6:51 PM 46.0 °F 44.8 °F 35.1 °F 66% 29.92 in 10.0 mi SSE 3.5 mph - N/A   Scattered Clouds
7:51 PM 46.0 °F 43.9 °F 36.0 °F 68% 29.91 in 10.0 mi Variable 4.6 mph - N/A   Mostly Cloudy
8:51 PM 45.0 °F - 36.0 °F 71% 29.93 in 10.0 mi Calm Calm - N/A   Overcast
9:51 PM 44.1 °F - 36.0 °F 73% 29.93 in 10.0 mi Calm Calm - N/A   Overcast
10:51 PM 46.0 °F 41.4 °F 26.1 °F 46% 29.94 in 10.0 mi NNW 9.2 mph - N/A   Overcast
11:51 PM 42.1 °F 33.3 °F 30.0 °F 62% 29.95 in 10.0 mi NW 19.6 mph - N/A   Overcast